| time (UTC) | temp F | wind direction | speed knots | gust knots | rain 1hr in | rain 24hr in | rain mn in | humidity % | barometer mb |
| 20260507103031 | 58 | 232 | 0.0 | 1.7 | 0.00 | 0.00 | 0.00 | 55 | 1016.2 |
| 20260507101532 | 56 | 0 | 0.0 | 1.7 | 0.00 | 0.00 | 0.00 | 58 | 1016.3 |
| 20260507100030 | 55 | 218 | 0.0 | 2.6 | 0.00 | 0.00 | 0.00 | 61 | 1016.3 |
| 20260507094533 | 56 | 214 | 0.0 | 2.6 | 0.00 | 0.00 | 0.00 | 66 | 1016.3 |
| 20260507093034 | 55 | 146 | 1.7 | 3.5 | 0.00 | 0.00 | 0.00 | 65 | 1016.2 |
| 20260507091536 | 55 | 205 | 0.9 | 6.1 | 0.00 | 0.00 | 0.00 | 67 | 1016.3 |
| 20260507090032 | 55 | 120 | 0.9 | 4.3 | 0.00 | 0.00 | 0.00 | 71 | 1016.3 |
| 20260507084540 | 54 | 0 | 0.0 | 3.5 | 0.00 | 0.00 | 0.00 | 74 | 1016.3 |
| 20260507083030 | 52 | 0 | 0.9 | 2.6 | 0.00 | 0.00 | 0.00 | 76 | 1016.3 |
| 20260507081536 | 52 | 0 | 0.0 | 2.6 | 0.00 | 0.00 | 0.00 | 80 | 1016.4 |
| 20260507080030 | 51 | 115 | 0.0 | 3.5 | 0.00 | 0.00 | 0.00 | 83 | 1016.4 |
| 20260507074532 | 50 | 0 | 0.9 | 2.6 | 0.00 | 0.00 | 0.00 | 85 | 1016.2 |
| 20260507073034 | 49 | 0 | 0.0 | 2.6 | 0.00 | 0.00 | 0.00 | 87 | 1016.1 |
| 20260507071530 | 48 | 0 | 0.0 | 1.7 | 0.00 | 0.00 | 0.00 | 88 | 1016.2 |
| 20260507070030 | 47 | 0 | 0.0 | 1.7 | 0.00 | 0.00 | 0.00 | 90 | 1016.1 |
| 20260507064534 | 46 | 0 | 0.0 | 0.9 | 0.00 | 0.00 | 0.00 | 91 | 1016.1 |
| 20260507063029 | 45 | 0 | 0.0 | 2.6 | 0.00 | 0.00 | 0.00 | 92 | 1016.1 |
| 20260507061531 | 44 | 0 | 0.0 | 0.0 | 0.00 | 0.00 | 0.00 | 92 | 1016.0 |
| 20260507060033 | 42 | 0 | 0.0 | 0.0 | 0.00 | 0.00 | 0.00 | 92 | 1016.0 |
| 20260507054531 | 40 | 0 | 0.0 | 0.0 | 0.00 | 0.00 | 0.00 | 92 | 1016.0 |
| 20260507053031 | 39 | 0 | 0.0 | 0.0 | 0.00 | 0.00 | 0.00 | 93 | 1015.8 |
| 20260507051533 | 38 | 0 | 0.0 | 0.0 | 0.00 | 0.00 | 0.00 | 92 | 1015.8 |
| 20260507050031 | 37 | 0 | 0.0 | 0.0 | 0.00 | 0.00 | 0.00 | 93 | 1015.7 |
| 20260507044532 | 37 | 0 | 0.0 | 0.0 | 0.00 | 0.00 | 0.00 | 93 | 1015.6 |
| 20260507043038 | 37 | 0 | 0.0 | 0.0 | 0.00 | 0.00 | 0.00 | 94 | 1015.6 |
| 20260507041530 | 36 | 0 | 0.0 | 0.0 | 0.00 | 0.00 | 0.00 | 92 | 1015.6 |
| 20260507040032 | 37 | 0 | 0.0 | 0.0 | 0.00 | 0.00 | 0.00 | 92 | 1015.7 |
| 20260507034535 | 38 | 0 | 0.0 | 0.0 | 0.00 | 0.00 | 0.00 | 93 | 1015.7 |
| 20260507033034 | 38 | 0 | 0.0 | 0.0 | 0.00 | 0.00 | 0.00 | 93 | 1015.7 |
| 20260507031529 | 37 | 0 | 0.0 | 0.0 | 0.00 | 0.00 | 0.00 | 92 | 1015.7 |
| 20260507030030 | 37 | 0 | 0.0 | 0.0 | 0.00 | 0.00 | 0.00 | 90 | 1015.8 |
| 20260507024532 | 38 | 0 | 0.0 | 0.0 | 0.00 | 0.00 | 0.00 | 90 | 1015.5 |
| 20260507023030 | 39 | 0 | 0.0 | 0.0 | 0.00 | 0.00 | 0.00 | 91 | 1015.5 |
| 20260507021530 | 40 | 0 | 0.0 | 0.0 | 0.00 | 0.00 | 0.00 | 90 | 1015.5 |
| 20260507020045 | 40 | 0 | 0.0 | 0.0 | 0.00 | 0.00 | 0.00 | 90 | 1015.4 |
| 20260507014534 | 40 | 0 | 0.0 | 0.0 | 0.00 | 0.00 | 0.00 | 89 | 1015.4 |
| 20260507013029 | 41 | 0 | 0.0 | 0.0 | 0.00 | 0.00 | 0.00 | 89 | 1015.4 |
| 20260507011541 | 40 | 0 | 0.0 | 0.0 | 0.00 | 0.00 | 0.00 | 89 | 1015.4 |
| 20260507010034 | 41 | 0 | 0.0 | 0.0 | 0.00 | 0.00 | 0.00 | 88 | 1015.4 |
| 20260507004531 | 41 | 0 | 0.0 | 0.0 | 0.00 | 0.00 | 0.00 | 88 | 1015.4 |
| 20260507003030 | 41 | 0 | 0.0 | 0.0 | 0.00 | 0.00 | 0.00 | 87 | 1015.4 |
| 20260507001602 | 41 | 0 | 0.0 | 0.0 | 0.00 | 0.00 | 0.00 | 87 | 1015.4 |
| 20260507000040 | 40 | 0 | 0.0 | 0.0 | 0.00 | 0.00 | 0.00 | 84 | 1015.4 |
| 20260506234531 | 42 | 0 | 0.0 | 0.0 | 0.00 | 0.00 | 0.00 | 83 | 1015.4 |
| 20260506233030 | 43 | 0 | 0.0 | 0.0 | 0.00 | 0.00 | 0.00 | 83 | 1015.4 |
| 20260506231531 | 42 | 0 | 0.0 | 0.0 | 0.00 | 0.00 | 0.00 | 82 | 1015.2 |
| 20260506230049 | 43 | 0 | 0.0 | 0.0 | 0.00 | 0.00 | 0.00 | 81 | 1015.3 |
| 20260506224530 | 44 | 0 | 0.0 | 0.0 | 0.00 | 0.00 | 0.00 | 79 | 1015.2 |
| 20260506223032 | 45 | 0 | 0.0 | 0.0 | 0.00 | 0.00 | 0.00 | 77 | 1015.1 |
| 20260506221530 | 45 | 0 | 0.0 | 0.0 | 0.00 | 0.00 | 0.00 | 76 | 1015.1 |
| 20260506220035 | 46 | 0 | 0.0 | 0.9 | 0.00 | 0.00 | 0.00 | 76 | 1014.9 |
| 20260506214529 | 46 | 0 | 0.0 | 0.0 | 0.00 | 0.00 | 0.00 | 75 | 1014.9 |
| 20260506213033 | 47 | 0 | 0.0 | 0.9 | 0.00 | 0.00 | 0.00 | 73 | 1015.0 |
| 20260506211530 | 47 | 0 | 0.0 | 1.7 | 0.00 | 0.00 | 0.00 | 72 | 1015.0 |
| 20260506210047 | 48 | 0 | 0.0 | 1.7 | 0.00 | 0.00 | 0.00 | 71 | 1014.8 |
| 20260506204530 | 49 | 30 | 0.0 | 1.7 | 0.00 | 0.00 | 0.00 | 70 | 1014.7 |
| 20260506203031 | 50 | 21 | 0.0 | 1.7 | 0.00 | 0.00 | 0.00 | 70 | 1014.7 |
| 20260506201530 | 50 | 0 | 0.0 | 1.7 | 0.00 | 0.00 | 0.00 | 70 | 1014.6 |
| 20260506200034 | 50 | 78 | 0.0 | 1.7 | 0.00 | 0.00 | 0.00 | 69 | 1014.4 |
| 20260506194532 | 51 | 0 | 0.0 | 1.7 | 0.00 | 0.00 | 0.00 | 68 | 1014.4 |
| 20260506193036 | 51 | 0 | 0.0 | 2.6 | 0.00 | 0.00 | 0.00 | 67 | 1014.1 |
| 20260506191530 | 51 | 52 | 0.0 | 4.3 | 0.00 | 0.00 | 0.00 | 67 | 1014.1 |
| 20260506190033 | 52 | 324 | 0.0 | 3.5 | 0.00 | 0.00 | 0.00 | 67 | 1014.1 |
| 20260506184537 | 52 | 322 | 0.0 | 2.6 | 0.00 | 0.00 | 0.00 | 68 | 1014.0 |
| 20260506183030 | 52 | 318 | 0.9 | 3.5 | 0.00 | 0.00 | 0.00 | 67 | 1013.9 |
| 20260506181539 | 53 | 23 | 0.9 | 3.5 | 0.00 | 0.00 | 0.00 | 66 | 1013.8 |
| 20260506180030 | 53 | 326 | 0.9 | 4.3 | 0.00 | 0.00 | 0.00 | 64 | 1013.5 |
| 20260506174535 | 54 | 25 | 0.9 | 5.2 | 0.00 | 0.00 | 0.00 | 63 | 1013.3 |
| 20260506173032 | 53 | 300 | 0.0 | 2.6 | 0.00 | 0.00 | 0.00 | 64 | 1013.3 |
| 20260506171535 | 53 | 309 | 0.0 | 4.3 | 0.00 | 0.00 | 0.00 | 65 | 1013.3 |
| 20260506170037 | 53 | 345 | 0.9 | 4.3 | 0.00 | 0.00 | 0.00 | 64 | 1013.3 |
| 20260506164546 | 54 | 32 | 2.6 | 6.1 | 0.00 | 0.00 | 0.00 | 62 | 1013.1 |
| 20260506163035 | 54 | 50 | 2.6 | 6.1 | 0.00 | 0.00 | 0.00 | 63 | 1013.0 |
| 20260506161530 | 55 | 65 | 2.6 | 6.1 | 0.00 | 0.00 | 0.00 | 61 | 1012.9 |
| 20260506160034 | 54 | 66 | 0.9 | 4.3 | 0.00 | 0.00 | 0.00 | 62 | 1013.0 |
| 20260506154533 | 54 | 347 | 1.7 | 5.2 | 0.00 | 0.00 | 0.00 | 62 | 1013.0 |
| 20260506153032 | 55 | 302 | 1.7 | 7.0 | 0.00 | 0.00 | 0.00 | 60 | 1013.0 |
| 20260506151533 | 55 | 282 | 2.6 | 7.8 | 0.00 | 0.00 | 0.00 | 57 | 1013.1 |
| 20260506150030 | 55 | 38 | 3.5 | 9.6 | 0.00 | 0.00 | 0.00 | 58 | 1013.1 |
| 20260506144530 | 57 | 58 | 2.6 | 9.6 | 0.00 | 0.00 | 0.00 | 58 | 1013.2 |
| 20260506143037 | 55 | 316 | 1.7 | 7.0 | 0.00 | 0.00 | 0.00 | 58 | 1013.3 |
| 20260506141540 | 56 | 62 | 1.7 | 10.4 | 0.00 | 0.00 | 0.00 | 56 | 1013.1 |
| 20260506140034 | 55 | 302 | 3.5 | 7.0 | 0.00 | 0.00 | 0.00 | 57 | 1013.2 |
| 20260506134530 | 55 | 319 | 2.6 | 10.4 | 0.00 | 0.00 | 0.00 | 57 | 1013.4 |
| 20260506133030 | 57 | 51 | 4.3 | 11.3 | 0.00 | 0.00 | 0.00 | 54 | 1013.2 |
| 20260506131529 | 55 | 42 | 2.6 | 8.7 | 0.00 | 0.00 | 0.00 | 56 | 1013.2 |
| 20260506130030 | 56 | 356 | 1.7 | 7.8 | 0.00 | 0.00 | 0.00 | 58 | 1013.4 |
| 20260506124529 | 55 | 70 | 3.5 | 7.8 | 0.00 | 0.00 | 0.00 | 57 | 1013.5 |
| 20260506123030 | 56 | 349 | 1.7 | 8.7 | 0.00 | 0.00 | 0.00 | 58 | 1013.5 |
| 20260506121530 | 55 | 15 | 2.6 | 7.8 | 0.00 | 0.00 | 0.00 | 57 | 1013.4 |
| 20260506120049 | 55 | 39 | 3.5 | 9.6 | 0.00 | 0.00 | 0.00 | 63 | 1013.5 |
| 20260506114534 | 54 | 302 | 2.6 | 9.6 | 0.00 | 0.00 | 0.00 | 63 | 1013.4 |
| 20260506113030 | 54 | 23 | 3.5 | 9.6 | 0.00 | 0.00 | 0.00 | 62 | 1013.5 |
| 20260506111531 | 54 | 344 | 3.5 | 7.8 | 0.00 | 0.00 | 0.00 | 61 | 1013.7 |
| 20260506110032 | 53 | 30 | 4.3 | 11.3 | 0.00 | 0.00 | 0.00 | 60 | 1013.7 |
| 20260506104539 | 53 | 294 | 3.5 | 11.3 | 0.00 | 0.00 | 0.00 | 60 | 1013.7 |